User: anonymous   Login
Location: Gleizolles
(44.4833°N, 6.7667°E)
Time: 17:56:45
(UTC+00:00)
Language:

XW-2C - Orbit

View from above orbital plane
View from above orbital plane
View from above satellite
View from above satellite

Ground track
Ground track

The orbit data is extracted from the following two-line orbital elements,

1 40906U 15049H   22334.10442021  .00005473  00000-0  24926-3 0  9991
2 40906  97.4956 336.4279 0014242 134.3501 298.8196 15.21012111398081
Epoch (UTC): 30 November 2022 02:30:21
Eccentricity: 0.0014242
inclination: 97.4956°
perigee height: 493 km
apogee height: 512 km
right ascension of ascending node: 336.4279°
argument of perigee: 134.3501°
revolutions per day: 15.21012111
mean anomaly at epoch: 298.8196°
orbit number at epoch: 39808

The dashed part of the orbit path shows where the satellite is in the earth's shadow,  

DLR